Powrót do katalogu

FENGYUN 1C DEB

AktywnySSO
NORAD 30594·DEBRIS·🇨🇳 China

Wystrzelony May 10, 1999 z Taiyuan Satellite Launch Center

Loading…

Następne Przeloty (najbliższe 24 godziny)

TLE

ŚwieżeSource: Space-Track

Epoka: Sep 14, 2026, 14:16 UTC

1 30594U 99025ALZ 26257.59497711  .00000164  00000-0  88082-4 0  9992
2 30594  99.1147 126.6478 0192446 254.3085 103.6785 14.17531180 14210

Śledź FENGYUN 1C DEB w czasie rzeczywistym z AllMySat

Download on the App Store